Weather History for Douglas, WY

Change the Weather History Date:

Tuesday, August 6, 2013

  Actual Average Record
Temperature  
Mean Temperature 73 °F 72 °F  
Max Temperature 89 °F 89 °F 100 °F (2001)
Min Temperature 56 °F 55 °F 45 °F (2000)
Degree Days  
Heating Degree Days 0 0  
Month to date heating degree days 0 0  
Since 1 June heating degree days 56 125  
Since 1 July heating degree days 0 15  
Cooling Degree Days 8 7  
Month to date cooling degree days 50 43  
Year to date cooling degree days 450 325  
Since 1 June cooling degree days 434 319  
Growing Degree Days 22 (Base 50)    
Moisture  
Dew Point 48 °F    
Average Humidity 49    
Maximum Humidity 80    
Minimum Humidity 18    
Precipitation  
Precipitation 0.00 in 0.04 in 0.95 in (2006)
Month to date precipitation 0.07 0.22  
Year to date precipitation 5.86 9.13  
Sea Level Pressure  
Sea Level Pressure 29.87 in    
Wind  
Wind Speed 8 mph (North)    
Max Wind Speed 23 mph    
Max Gust Speed 26 mph    
Visibility 10 miles    
Events      
T = Trace of Precipitation, MM = Missing Value Source: NWS Daily Summary

Daily Weather History Graph

Daily Weather History Graph

Search for Another Location

Airport:

Trip Planner

Search our weather history database for the weather conditions in past years. The results will help you decide how hot, cold, wet, or windy it might be!

Date:

Astronomy

Aug. 06, 2013 Rise Set
Actual Time 5:58 AM MDT 8:15 PM MDT
Civil Twilight 5:26 AM MDT 8:46 PM MDT
Nautical Twilight 4:48 AM MDT 9:25 PM MDT
Astronomical Twilight 4:04 AM MDT 10:08 PM MDT
Moon 5:53 AM MDT (8/6) 7:49 PM MDT (8/6)
Length of Visible Light 15h 19m
Length of Day
14h 17m
Waning Crescent, 0% of the Moon is Illuminated
Aug 6
Waning Crescent
Aug 6
New
Aug 14
First Quarter
Aug 20
Full
Aug 28
Last Quarter

Hourly Weather History & Observations

Time (MDT) Temp. Dew Point Humidity Pressure Visibility Wind Dir Wind Speed Gust Speed Precip Events Conditions
12:53 AM 66.0 °F 46.9 °F 50% 29.79 in 10.0 mi NW 13.8 mph - N/A   Clear
1:53 AM 64.0 °F 53.1 °F 67% 29.82 in 10.0 mi NNW 8.1 mph - N/A   Clear
2:53 AM 61.0 °F 52.0 °F 72% 29.83 in 10.0 mi NW 6.9 mph - N/A   Clear
3:53 AM 60.1 °F 53.1 °F 78% 29.83 in 10.0 mi WNW 8.1 mph - N/A   Clear
4:53 AM 59.0 °F 52.0 °F 78% 29.86 in 10.0 mi NW 6.9 mph - N/A   Clear
5:53 AM 57.0 °F 51.1 °F 81% 29.88 in 10.0 mi NW 5.8 mph - N/A   Clear
6:53 AM 60.1 °F 52.0 °F 75% 29.89 in 10.0 mi North 4.6 mph - N/A   Clear
7:53 AM 66.0 °F 53.1 °F 63% 29.89 in 10.0 mi North 4.6 mph - N/A   Clear
8:53 AM 70.0 °F 53.1 °F 55% 29.88 in 10.0 mi WNW 3.5 mph - N/A   Clear
9:53 AM 73.9 °F 52.0 °F 46% 29.88 in 10.0 mi Calm Calm - N/A   Clear
10:53 AM 77.0 °F 48.0 °F 36% 29.87 in 10.0 mi Calm Calm - N/A   Clear
11:53 AM 81.0 °F 46.9 °F 30% 29.86 in 10.0 mi Variable 6.9 mph - N/A   Clear
12:53 PM 82.9 °F 48.0 °F 29% 29.86 in 10.0 mi Calm Calm - N/A   Clear
1:53 PM 86.0 °F 46.0 °F 25% 29.85 in 10.0 mi Variable 6.9 mph - N/A   Clear
2:53 PM 87.1 °F 46.0 °F 24% 29.84 in 10.0 mi ENE 11.5 mph 20.7 mph N/A   Clear
3:53 PM 88.0 °F 44.1 °F 22% 29.83 in 10.0 mi North 10.4 mph - N/A   Clear
4:53 PM 87.1 °F 42.1 °F 21% 29.83 in 10.0 mi Variable 3.5 mph 17.3 mph N/A   Clear
5:53 PM 87.1 °F 39.9 °F 19% 29.83 in 10.0 mi North 9.2 mph 20.7 mph N/A   Clear
6:53 PM 82.9 °F 43.0 °F 24% 29.85 in 10.0 mi NE 19.6 mph 24.2 mph N/A   Clear
7:53 PM 78.1 °F 44.1 °F 30% 29.88 in 10.0 mi ENE 19.6 mph - N/A   Clear
8:53 PM 73.0 °F 46.0 °F 38% 29.92 in 10.0 mi ENE 13.8 mph - N/A   Clear
9:53 PM 69.1 °F 46.0 °F 44% 29.94 in 10.0 mi ENE 12.7 mph - N/A   Clear
10:53 PM 66.9 °F 48.0 °F 51% 29.95 in 10.0 mi ENE 12.7 mph - N/A   Clear
11:53 PM 64.9 °F 48.0 °F 54% 29.96 in 10.0 mi East 9.2 mph - N/A   Clear